Regional Weather Roundup
Issued by NWS

Home | Current Version | Previous Version | Graphics & Text | Print | Product List | Glossary Off
Versions: 1 2 3 4 5 6 7 8 9 10 11 12 13 14 15 16 17 18 19 20 21 22 23 24 25 26 27 28 29 30 31 32 33 34 35 36 37 38 39 40 41 42 43 44 45 46 47 48 49 50

000
ASUS43 KOAX 020910
RWRNE

WEATHER ROUNDUP FOR NEBRASKA
NATIONAL WEATHER SERVICE OMAHA NE
400 AM CDT MON MAY 02 2016

NOTES: SATELLITE DATA IS BEING USED TO AUGMENT CLOUD COVER ABOVE
       12000 FEET.
       "FAIR" INDICATES FEW OR NO CLOUDS BELOW 12,000 FEET WITH NO
       SIGNIFICANT WEATHER AND/OR OBSTRUCTIONS TO VISIBILITY.

  * THESE STATIONS DO NOT REPORT WEATHER SUCH AS RAIN...SNOW OR FOG.

NEZ001>004-019>022-054>056-021000-
NEBRASKA PANHANDLE

CITY           SKY/WX    TMP DP  RH WIND       PRES   REMARKS
SCOTTSBLUFF    CLEAR     33  28  81 NW9       30.24F WCI  25
ALLIANCE       CLEAR     23  21  92 W7        30.21F WCI  15
CHADRON        CLEAR     30  27  88 SW6       30.22F WCI  24
KIMBALL        CLEAR     27  23  85 W12       30.24S WCI  17
SIDNEY         CLEAR     30  25  81 W13       30.23F WCI  20
$$

NEZ057>060-069>072-079>082-021000-
SOUTHWEST NEBRASKA

CITY           SKY/WX    TMP DP  RH WIND       PRES   REMARKS
NORTH PLATTE   CLEAR     30  30 100 NW3       30.22F
IMPERIAL       CLEAR     35  29  78 W8        30.23F WCI  29
LEXINGTON      CLEAR     33  31  93 NW7       30.21S WCI  27
MCCOOK         PTCLDY    35  31  85 SW5       30.22F WCI  31
OGALLALA       CLEAR     31  28  88 W3        30.23S
$$

NEZ005>010-023>029-035>040-094-021000-
NORTH CENTRAL NEBRASKA

CITY           SKY/WX    TMP DP  RH WIND       PRES   REMARKS
VALENTINE      CLEAR     28  26  92 W7        30.19F WCI  21
AINSWORTH      CLEAR     36  32  87 W6        30.19S WCI  31
BROKEN BOW     CLEAR     31  30  96 CALM      30.19F
O`NEILL        CLEAR     38  34  85 W7        30.17F WCI  33
ORD            CLEAR     33  31  92 CALM      30.18F
THEDFORD         N/A     32  31  94 SW5       30.21S WCI  27
$$

NEZ041-046>049-061>064-073>077-083>087-021000-
SOUTH CENTRAL NEBRASKA

CITY           SKY/WX    TMP DP  RH WIND       PRES   REMARKS
GRAND ISLAND   PTCLDY    41  38  89 W7        30.19S
AURORA         CLEAR     42  41  96 NW5       30.18S
HASTINGS       CLOUDY    44  40  85 NW8       30.18F
HEBRON         CLOUDY    47  43  88 NW5       30.17F
HOLDREGE       CLEAR     39  37  91 W7        30.19F WCI  34
KEARNEY *      MOCLDY    37  34  87 NW9       30.20S WCI  31
YORK           MOCLDY    41  41 100 NW8       30.17F
$$

NEZ011>018-030>034-042>045-021000-
NORTHEAST NEBRASKA

CITY           SKY/WX    TMP DP  RH WIND       PRES   REMARKS
NORFOLK        CLEAR     37  34  89 W7        30.16F WCI  32
ALBION         CLEAR     33  32  94 NW5       30.18S WCI  29
BLAIR          CLOUDY    47  42  82 NW7       30.13S
COLUMBUS *     CLOUDY    39  32  75 W5        30.17S
FREMONT        CLOUDY    44  42  93 W6        30.15S
TEKAMAH        PTCLDY    45  40  82 N10       30.14F
WAYNE          CLEAR     35  34  96 CALM      30.17S
$$

NEZ050>053-065>068-078-088>093-021000-
SOUTHEAST NEBRASKA

CITY           SKY/WX    TMP DP  RH WIND       PRES   REMARKS
LINCOLN        CLOUDY    49  42  77 NW7       30.16F
OMAHA EPPLEY   CLOUDY    47  45  93 N5        30.13F
BEATRICE       CLOUDY    47  44  90 NW8       30.15S
FALLS CITY     CLOUDY    46  44  93 W3        30.13S
NEBRASKA CITY  CLOUDY    47  47 100 NW6       30.13S
PLATTSMOUTH    CLOUDY    47  44  89 W5        30.13S
$$

NEZ044-045-051>053-067-021000-
OMAHA AREA

CITY           SKY/WX    TMP DP  RH WIND       PRES   REMARKS
OMAHA EPPLEY   CLOUDY    47  45  93 N5        30.13F
BLAIR          CLOUDY    47  42  82 NW7       30.13S
FREMONT        CLOUDY    44  42  93 W6        30.15S
MILLARD        CLOUDY    49  43  82 NW5       30.13F
OFFUTT AFB     CLOUDY    48  46  91 W6        30.12F
PLATTSMOUTH    CLOUDY    47  44  89 W5        30.13S
WAHOO          CLOUDY    47  42  81 NW9       30.15S
$$




USA.gov is the U.S. government's official web portal to all federal, state and local government web resources and services.